Flag for U.S.A. Weather past 2 weeks in Pierre, South Dakota, U.S.A.

Now
29 °F

Clear.


Feels Like: 23 °F
Forecast: 29 / 35 °F
Wind: 6 mph from Northeast

Location: Pierre Regional Airport

Current Time: Dec 21, 2014 at 8:12:15 PM

Latest Report: Dec 21, 2014 at 7:53 PM


Visibility: 10 mi

Pressure: 29.46 "Hg

Humidity: 93%

Dew point: 27 °F

Location of PierreLocation

Historic Weather in Pierre — Graph

°F

Pierre temperature yesterday

Maximum temperature yesterday: 28 °F (at 2:53 PM)
Minimum temperature yesterday: 13 °F (at 1:57 AM)
Average temperature yesterday: 21 °F

Past Weeks' High & Low Weather Summary

 TemperatureHumidityPressure
High60 °F (Dec 12, 2:53 PM)100% (Dec 11, 3:53 AM)30.45 "Hg (Dec 11, 3:53 AM)
Low12 °F (Dec 19, 1:53 AM)31% (Dec 12, 2:53 PM)29.45 "Hg (Dec 21, 4:53 PM)
Average29 °F81%30.07 "Hg
* Reported Dec 6 5:53 PM — Dec 21 5:53 PM, Pierre, Weather by CustomWeather, © 2014

Note: Actual official high and low records may vary slightly from our data, if they occured in-between our weather recording intervals... More about our weather records

Advertising

Pierre weather history for previous 24 hours

 ConditionsComfort  
Time TempWeatherWind HumidityBarometerVisibility
5:53 PM
Dec 21
31 °FClear.8 mph89%29.45 "Hg10 mi
4:53 PM33 °FSunny.7 mph82%29.45 "Hg10 mi
3:53 PM34 °FSunny.7 mph82%29.46 "Hg10 mi
2:53 PM34 °FSunny.10 mph79%29.46 "Hg10 mi
1:53 PM33 °FSunny.10 mph82%29.48 "Hg10 mi
12:53 PM32 °FSunny.9 mph82%29.51 "Hg10 mi
11:53 AM30 °FSunny.9 mph85%29.56 "Hg10 mi
10:53 AM28 °FSunny.8 mph89%29.61 "Hg10 mi
9:53 AM26 °FSunny.8 mph92%29.64 "Hg9 mi
8:53 AM24 °FSunny.7 mph91%29.66 "Hg9 mi
7:53 AM24 °FClear.10 mph91%29.68 "Hg7 mi
6:53 AM21 °FClear.8 mph92%29.71 "Hg9 mi
5:53 AM23 °FIce fog.8 mph92%29.74 "Hg6 mi
4:53 AM23 °FPassing clouds.8 mph96%29.76 "Hg8 mi
3:53 AM22 °FIce fog.3 mph89%29.80 "Hg6 mi
2:53 AM24 °FMostly cloudy.5 mph91%29.83 "Hg7 mi
1:53 AM22 °FIce fog.6 mph92%29.84 "Hg6 mi
12:53 AM24 °FIce fog.3 mph88%29.86 "Hg6 mi
11:53 PM
Dec 20
25 °FOvercast.7 mph88%29.89 "Hg7 mi
10:53 PM23 °FIce fog.No wind88%29.91 "Hg6 mi
10:02 PM20 °FIce fog.No wind92%29.86 "Hg3 mi
9:53 PM20 °FIce fog.3 mph89%29.93 "Hg2 mi
9:00 PM18 °FIce fog.No wind92%29.87 "Hg0 mi
Weather by CustomWeather, © 2014

See weather overviewHow to use our weather pages